Time,TemperatureF,DewpointF,PressureIn,WindDirection,WindDirectionDegrees,WindSpeedMPH,WindSpeedGustMPH,Humidity,HourlyPrecipIn,Conditions,Clouds,dailyrainin,SoftwareType,DateUTC
2013-06-08 00:00:00,41.0,20.0,-100.00,NW,306,16.0,24.0,42,-99.99,,,-99.99,,2013-06-08 06:00:00,
2013-06-08 00:42:00,41.0,20.0,-100.00,NW,306,16.0,24.0,42,-99.99,,,-99.99,,2013-06-08 06:42:00,
2013-06-08 00:52:00,41.0,20.0,-100.00,NW,306,16.0,24.0,42,-99.99,,,-99.99,,2013-06-08 06:52:00,
2013-06-08 01:00:00,41.0,21.0,-100.00,WNW,296,14.0,24.0,44,-99.99,,,-99.99,,2013-06-08 07:00:00,
2013-06-08 01:42:00,41.0,21.0,-100.00,WNW,296,14.0,24.0,44,-99.99,,,-99.99,,2013-06-08 07:42:00,
2013-06-08 01:52:00,41.0,21.0,-100.00,WNW,296,14.0,24.0,44,-99.99,,,-99.99,,2013-06-08 07:52:00,
2013-06-08 02:00:00,41.0,21.0,-100.00,WNW,288,13.0,23.0,44,-99.99,,,-99.99,,2013-06-08 08:00:00,
2013-06-08 02:42:00,41.0,21.0,-100.00,WNW,288,13.0,23.0,44,-99.99,,,-99.99,,2013-06-08 08:42:00,
2013-06-08 02:52:00,41.0,21.0,-100.00,WNW,288,13.0,23.0,44,-99.99,,,-99.99,,2013-06-08 08:52:00,
2013-06-08 03:00:00,41.0,21.0,-100.00,NW,304,15.0,23.0,45,-99.99,,,-99.99,,2013-06-08 09:00:00,
2013-06-08 03:43:00,41.0,21.0,-100.00,NW,304,15.0,23.0,45,-99.99,,,-99.99,,2013-06-08 09:43:00,
2013-06-08 03:53:00,41.0,21.0,-100.00,NW,304,15.0,23.0,45,-99.99,,,-99.99,,2013-06-08 09:53:00,
2013-06-08 04:00:00,39.0,22.0,-100.00,NW,313,11.0,17.0,50,-99.99,,,-99.99,,2013-06-08 10:00:00,
2013-06-08 04:43:00,39.0,22.0,-100.00,NW,313,11.0,17.0,50,-99.99,,,-99.99,,2013-06-08 10:43:00,
2013-06-08 04:53:00,39.0,22.0,-100.00,NW,313,11.0,17.0,50,-99.99,,,-99.99,,2013-06-08 10:53:00,
2013-06-08 05:00:00,39.0,23.0,-100.00,NW,314,7.0,11.0,51,-99.99,,,-99.99,,2013-06-08 11:00:00,
2013-06-08 05:42:00,39.0,23.0,-100.00,NW,314,7.0,11.0,51,-99.99,,,-99.99,,2013-06-08 11:42:00,
2013-06-08 05:52:00,39.0,23.0,-100.00,NW,314,7.0,11.0,51,-99.99,,,-99.99,,2013-06-08 11:52:00,
2013-06-08 06:00:00,38.0,22.0,-100.00,WSW,250,8.0,14.0,52,-99.99,,,-99.99,,2013-06-08 12:00:00,
2013-06-08 06:42:00,38.0,22.0,-100.00,WSW,250,8.0,14.0,52,-99.99,,,-99.99,,2013-06-08 12:42:00,
2013-06-08 06:52:00,38.0,22.0,-100.00,WSW,250,8.0,14.0,52,-99.99,,,-99.99,,2013-06-08 12:52:00,
2013-06-08 07:00:00,38.0,23.0,-100.00,NW,308,11.0,22.0,53,-99.99,,,-99.99,,2013-06-08 13:00:00,
2013-06-08 07:42:00,38.0,23.0,-100.00,NW,308,11.0,22.0,53,-99.99,,,-99.99,,2013-06-08 13:42:00,
2013-06-08 07:52:00,38.0,23.0,-100.00,NW,308,11.0,22.0,53,-99.99,,,-99.99,,2013-06-08 13:52:00,
2013-06-08 08:00:00,38.0,23.0,-100.00,NW,312,12.0,24.0,54,-99.99,,,-99.99,,2013-06-08 14:00:00,
2013-06-08 08:42:00,38.0,23.0,-100.00,NW,312,12.0,24.0,54,-99.99,,,-99.99,,2013-06-08 14:42:00,
2013-06-08 08:52:00,38.0,23.0,-100.00,NW,312,12.0,24.0,54,-99.99,,,-99.99,,2013-06-08 14:52:00,
2013-06-08 09:00:00,39.0,25.0,-100.00,NW,306,19.0,33.0,57,-99.99,,,-99.99,,2013-06-08 15:00:00,
2013-06-08 09:43:00,39.0,25.0,-100.00,NW,306,19.0,33.0,57,-99.99,,,-99.99,,2013-06-08 15:43:00,
2013-06-08 09:53:00,39.0,25.0,-100.00,NW,306,19.0,33.0,57,-99.99,,,-99.99,,2013-06-08 15:53:00,
2013-06-08 10:00:00,40.0,26.0,-100.00,NW,304,21.0,34.0,57,-99.99,,,-99.99,,2013-06-08 16:00:00,
2013-06-08 10:42:00,40.0,26.0,-100.00,NW,304,21.0,34.0,57,-99.99,,,-99.99,,2013-06-08 16:42:00,
2013-06-08 10:53:00,40.0,26.0,-100.00,NW,304,21.0,34.0,57,-99.99,,,-99.99,,2013-06-08 16:53:00,
2013-06-08 11:00:00,41.0,26.0,-100.00,WNW,302,17.0,27.0,54,-99.99,,,-99.99,,2013-06-08 17:00:00,
2013-06-08 11:42:00,41.0,26.0,-100.00,WNW,302,17.0,27.0,54,-99.99,,,-99.99,,2013-06-08 17:42:00,
2013-06-08 11:52:00,41.0,26.0,-100.00,WNW,302,17.0,27.0,54,-99.99,,,-99.99,,2013-06-08 17:52:00,
2013-06-08 12:00:00,44.0,26.0,-100.00,NW,309,13.0,24.0,49,-99.99,,,-99.99,,2013-06-08 18:00:00,
2013-06-08 12:42:00,44.0,26.0,-100.00,NW,309,13.0,24.0,49,-99.99,,,-99.99,,2013-06-08 18:42:00,
2013-06-08 12:52:00,44.0,26.0,-100.00,NW,309,13.0,24.0,49,-99.99,,,-99.99,,2013-06-08 18:52:00,
2013-06-08 13:00:00,46.0,26.0,-100.00,WNW,294,9.0,19.0,44,-99.99,,,-99.99,,2013-06-08 19:00:00,
2013-06-08 13:42:00,46.0,26.0,-100.00,WNW,294,9.0,19.0,44,-99.99,,,-99.99,,2013-06-08 19:42:00,
2013-06-08 13:53:00,46.0,26.0,-100.00,WNW,294,9.0,19.0,44,-99.99,,,-99.99,,2013-06-08 19:53:00,
2013-06-08 14:00:00,48.0,21.0,-100.00,WNW,296,12.0,25.0,34,-99.99,,,-99.99,,2013-06-08 20:00:00,
2013-06-08 14:42:00,48.0,21.0,-100.00,WNW,296,12.0,25.0,34,-99.99,,,-99.99,,2013-06-08 20:42:00,
2013-06-08 14:52:00,48.0,21.0,-100.00,WNW,296,12.0,25.0,34,-99.99,,,-99.99,,2013-06-08 20:52:00,
2013-06-08 15:00:00,49.0,19.0,-100.00,WNW,289,12.0,28.0,29,-99.99,,,-99.99,,2013-06-08 21:00:00,
2013-06-08 15:43:00,49.0,19.0,-100.00,WNW,289,12.0,28.0,29,-99.99,,,-99.99,,2013-06-08 21:43:00,
2013-06-08 15:53:00,49.0,19.0,-100.00,WNW,289,12.0,28.0,29,-99.99,,,-99.99,,2013-06-08 21:53:00,
2013-06-08 16:00:00,50.0,19.0,-100.00,WNW,303,15.0,29.0,29,-99.99,,,-99.99,,2013-06-08 22:00:00,
2013-06-08 16:43:00,50.0,19.0,-100.00,WNW,303,15.0,29.0,29,-99.99,,,-99.99,,2013-06-08 22:43:00,
2013-06-08 16:52:00,50.0,19.0,-100.00,WNW,303,15.0,29.0,29,-99.99,,,-99.99,,2013-06-08 22:52:00,
2013-06-08 17:00:00,50.0,21.0,-100.00,WNW,302,18.0,32.0,31,-99.99,,,-99.99,,2013-06-08 23:00:00,
2013-06-08 17:42:00,50.0,21.0,-100.00,WNW,302,18.0,32.0,31,-99.99,,,-99.99,,2013-06-08 23:42:00,
2013-06-08 17:52:00,50.0,21.0,-100.00,WNW,302,18.0,32.0,31,-99.99,,,-99.99,,2013-06-08 23:52:00,
2013-06-08 18:00:00,50.0,22.0,-100.00,WNW,303,18.0,30.0,33,-99.99,,,-99.99,,2013-06-09 00:00:00,
2013-06-08 18:42:00,50.0,22.0,-100.00,WNW,303,18.0,30.0,33,-99.99,,,-99.99,,2013-06-09 00:42:00,
2013-06-08 18:52:00,50.0,22.0,-100.00,WNW,303,18.0,30.0,33,-99.99,,,-99.99,,2013-06-09 00:52:00,
2013-06-08 19:00:00,50.0,25.0,-100.00,NW,317,13.0,29.0,36,-99.99,,,-99.99,,2013-06-09 01:00:00,
2013-06-08 19:42:00,50.0,25.0,-100.00,NW,317,13.0,29.0,36,-99.99,,,-99.99,,2013-06-09 01:42:00,
2013-06-08 19:52:00,50.0,25.0,-100.00,NW,317,13.0,29.0,36,-99.99,,,-99.99,,2013-06-09 01:52:00,
2013-06-08 20:00:00,50.0,22.0,-100.00,NW,318,11.0,23.0,34,-99.99,,,-99.99,,2013-06-09 02:00:00,
2013-06-08 20:42:00,50.0,22.0,-100.00,NW,318,11.0,23.0,34,-99.99,,,-99.99,,2013-06-09 02:42:00,
2013-06-08 20:52:00,50.0,22.0,-100.00,NW,318,11.0,23.0,34,-99.99,,,-99.99,,2013-06-09 02:52:00,
2013-06-08 21:00:00,47.0,22.0,-100.00,NW,320,9.0,24.0,37,-99.99,,,-99.99,,2013-06-09 03:00:00,
2013-06-08 21:43:00,47.0,22.0,-100.00,NW,320,9.0,24.0,37,-99.99,,,-99.99,,2013-06-09 03:43:00,
2013-06-08 21:53:00,47.0,22.0,-100.00,NW,320,9.0,24.0,37,-99.99,,,-99.99,,2013-06-09 03:53:00,
2013-06-08 22:00:00,45.0,22.0,-100.00,NNW,327,9.0,20.0,39,-99.99,,,-99.99,,2013-06-09 04:00:00,
2013-06-08 22:43:00,45.0,22.0,-100.00,NNW,327,9.0,20.0,39,-99.99,,,-99.99,,2013-06-09 04:43:00,
2013-06-08 22:53:00,45.0,22.0,-100.00,NNW,327,9.0,20.0,39,-99.99,,,-99.99,,2013-06-09 04:53:00,
2013-06-08 23:00:00,45.0,21.0,-100.00,NW,315,13.0,22.0,38,-99.99,,,-99.99,,2013-06-09 05:00:00,
2013-06-08 23:42:00,45.0,21.0,-100.00,NW,315,13.0,22.0,38,-99.99,,,-99.99,,2013-06-09 05:42:00,
2013-06-08 23:52:00,45.0,21.0,-100.00,NW,315,13.0,22.0,38,-99.99,,,-99.99,,2013-06-09 05:52:00,